Temp
58 58 58 58 57 57 57 57 56 56 57 57 56 58 60 58 59 61 62 60 61 60 58 58 58 57 56 55 54 54 53 52 51 51 50 50 50 50 49 50 51 52 53
54 57 56 56 56 56 57 57 58 57 58 58 57 59 62 59 59 59 60 61 61 60 59 59 57 56 55 54 54 54 52 53 51 50 48 48 50 49 50 49 51 51 52
50 54 55 55 56 55 56 57 58 59 60 59 58 58 59 59 58 57 57 59 60 60 61 58 58 56 56 55 55 53 53 51 49 50 50 45 45 47 48 48 49 50 49
51 52 56 56 55 56 57 58 58 59 60 61 60 59 61 60 63 59 59 59 60 59 59 59 57 56 56 54 55 54 52 52 49 49 51 50 51 48 47 48 50 50 51
52 51 53 54 58 58 56 56 57 57 58 60 60 55 61 62 55 55 56 55 56 58 59 58 57 56 56 56 54 52 51 51 50 50 47 49 48 48 47 45 46 50 50
53 53 54 56 56 58 58 56 54 54 57 57 56 54 53 54 54 53 53 54 54 55 57 58 58 58 57 56 55 55 54 54 54 51 49 49 47 47 45 45 45 46 49
54 53 52 53 54 54 55 56 54 54 55 55 55 55 54 54 57 58 57 56 54 54 56 57 57 58 58 58 58 55 54 53 52 52 52 52 51 50 49 48 46 45 47
55 55 54 53 52 53 54 54 53 54 55 55 55 55 56 56 57 58 59 56 57 56 56 57 59 59 59 59 57 57 56 55 53 53 51 51 52 50 47 48 47 41 43
55 56 57 56 54 54 53 53 54 54 55 55 56 55 56 57 57 57 55 55 55 56 56 56 58 58 57 56 56 56 54 53 54 52 51 52 51 50 50 49 48 47 41
55 56 57 57 57 57 56 55 56 55 56 56 56 57 56 57 57 56 56 57 56 56 57 57 58 56 56 56 55 54 53 52 51 52 50 50 49 49 48 48 47 47 45
55 57 58 59 59 58 57 56 56 56 56 57 57 57 58 58 58 58 58 58 57 58 58 58 57 56 56 55 54 54 52 51 50 49 49 49 48 47 47 47 46 45 44
56 57 57 57 58 57 57 57 57 57 58 58 58 58 59 59 58 59 60 60 58 58 59 58 58 57 56 54 53 51 51 50 48 48 48 47 48 47 46 45 44 44 43
55 56 56 57 58 58 58 58 58 57 59 59 59 59 58 58 59 60 60 59 58 59 58 58 58 58 55 52 51 50 49 49 49 48 47 47 46 45 44 43 43 42 43
57 56 56 57 59 59 59 58 58 58 58 59 59 58 57 58 58 58 57 56 57 58 57 58 58 56 53 52 50 49 48 47 47 47 47 46 45 45 43 42 41 40 38
58 57 58 57 58 57 58 59 59 58 58 57 57 57 56 55 55 54 54 55 57 57 58 54 52 51 50 49 49 48 47 47 45 45 44 42 42 41 42 40 37 36 34
59 61 61 59 56 57 57 55 54 53 55 56 55 52 52 52 52 51 51 50 50 50 49 48 47 46 47 43 42 45 46 45 43 38 37 38 38 37 37 37 36 35 33
59 61 61 61 59 53 51 50 51 52 52 51 51 50 50 49 49 49 49 48 47 46 45 45 46 45 44 40 41 41 43 40 38 36 36 37 36 34 35 34 34 33 34
59 58 58 51 50 49 50 51 52 51 50 50 49 49 49 48 47 47 46 45 45 45 44 44 45 44 41 38 38 37 38 35 35 35 34 34 33 33 32 31 31 30 31
62 57 51 50 50 50 52 51 50 50 49 49 48 48 47 46 45 44 44 44 44 44 42 42 41 39 36 36 36 36 35 33 32 33 33 33 32 33 33 30 29 29 30
53 50 51 51 52 51 52 50 49 49 47 47 47 47 47 46 44 44 44 44 42 40 38 36 36 36 35 36 36 35 33 31 31 32 32 32 31 31 32 29 28 26 27
48 50 50 50 50 51 51 49 49 46 47 47 46 46 46 45 44 43 43 40 37 35 33 32 32 33 34 34 35 35 32 31 30 30 29 29 30 31 31 31 29 27 27
49 49 48 47 49 51 50 47 45 47 47 46 45 44 44 44 42 40 39 38 36 32 31 30 29 30 31 33 33 33 32 32 30 29 29 28 29 30 30 29 29 27 25
48 48 47 47 47 48 49 44 45 46 44 42 40 40 40 40 40 38 36 35 34 32 31 30 28 27 28 28 29 29 28 29 28 28 28 28 29 29 29 29 28 24 23
47 48 47 45 43 45 44 44 43 44 42 39 37 37 35 34 35 35 35 34 32 32 31 30 28 27 26 26 27 27 27 28 28 27 27 26 26 26 26 26 25 23 22
43 44 43 42 41 42 41 41 41 40 36 34 34 33 32 31 30 29 30 30 30 31 29 29 28 26 25 26 26 26 26 26 27 25 24 24 23 22 22 22 22 21 21
39 37 36 35 35 35 36 37 39 37 34 31 31 31 30 30 30 29 28 31 30 30 30 29 28 28 29 28 29 28 27 26 26 23 20 18 17 18 19 18 18 18 17
MSLP
1011.04 1011.21 1011.43 1011.58 1011.91 1012.15 1012.48 1012.82 1013.20 1013.71 1014.06 1014.48 1014.91 1015.45 1015.71 1015.97 1016.43 1016.83 1017.41 1018.16 1018.68 1019.21 1019.90 1020.30 1020.84 1021.22 1021.51 1022.10 1022.55 1022.73 1023.17 1023.66 1023.92 1024.42 1025.13 1025.29 1025.07 1025.16 1025.10 1025.33 1025.19 1025.19 1025.46
1010.90 1011.17 1011.36 1011.76 1011.93 1012.26 1012.63 1012.98 1013.38 1013.80 1014.16 1014.53 1015.03 1015.44 1015.78 1016.25 1016.78 1017.33 1017.77 1018.18 1018.86 1019.12 1019.63 1019.87 1020.52 1020.81 1021.25 1021.98 1022.39 1022.46 1023.16 1023.36 1023.52 1024.32 1025.12 1025.26 1025.09 1024.84 1024.69 1024.95 1024.93 1025.02 1025.23
1010.63 1010.96 1011.14 1011.49 1011.85 1012.12 1012.65 1012.95 1013.46 1013.75 1013.99 1014.52 1015.23 1015.74 1016.03 1016.55 1017.11 1017.42 1017.48 1018.38 1018.67 1018.91 1018.95 1019.67 1019.88 1020.17 1020.66 1021.38 1021.78 1022.15 1022.41 1022.91 1023.46 1023.67 1024.18 1025.38 1025.07 1024.64 1024.50 1024.41 1024.49 1024.62 1025.10
1009.96 1010.47 1010.70 1011.03 1011.17 1011.88 1012.69 1012.99 1013.20 1013.73 1014.10 1014.34 1014.74 1015.53 1015.54 1015.91 1016.32 1017.06 1017.88 1018.25 1018.27 1018.58 1018.74 1019.02 1019.15 1019.42 1020.20 1020.71 1020.84 1021.30 1021.80 1022.32 1023.11 1023.71 1023.64 1023.85 1023.86 1024.14 1024.63 1024.28 1024.19 1024.13 1024.42
1008.86 1009.50 1010.06 1010.40 1011.07 1011.84 1012.50 1012.82 1013.17 1013.65 1013.92 1014.39 1014.78 1015.23 1015.73 1015.75 1016.34 1016.98 1017.66 1017.78 1017.99 1017.89 1018.24 1018.15 1018.47 1019.21 1019.74 1019.91 1020.37 1020.86 1021.35 1021.73 1022.21 1022.52 1023.30 1023.82 1023.81 1023.73 1024.15 1024.19 1024.38 1024.46 1024.15
1008.15 1008.85 1009.55 1010.35 1010.73 1011.41 1011.86 1012.30 1013.06 1013.52 1014.04 1014.13 1014.43 1014.86 1015.42 1015.79 1016.29 1016.57 1016.96 1017.25 1017.36 1017.37 1017.45 1017.63 1018.23 1018.76 1019.05 1019.42 1019.72 1020.17 1020.68 1021.14 1021.19 1021.44 1021.98 1022.41 1022.75 1023.14 1023.61 1023.97 1023.96 1023.96 1024.14
1007.43 1008.28 1008.90 1009.67 1010.40 1011.02 1011.62 1012.16 1012.79 1013.05 1013.53 1013.90 1014.45 1014.37 1014.97 1015.55 1015.67 1015.91 1016.42 1016.71 1016.99 1017.18 1017.18 1017.45 1018.03 1018.36 1018.52 1018.65 1019.12 1019.58 1019.92 1020.26 1020.56 1020.75 1020.84 1021.13 1021.17 1021.77 1022.41 1023.14 1023.41 1023.69 1023.89
1006.16 1007.00 1007.90 1008.85 1009.66 1010.37 1011.06 1011.57 1011.94 1012.57 1012.93 1013.30 1013.91 1013.86 1014.67 1015.25 1015.47 1015.64 1015.84 1016.29 1016.44 1016.45 1016.77 1016.94 1017.12 1017.30 1017.46 1017.75 1018.26 1018.84 1019.09 1019.26 1019.64 1019.91 1020.10 1020.31 1020.49 1020.89 1021.33 1022.20 1022.95 1023.62 1023.92
1005.14 1005.76 1006.72 1007.70 1008.59 1009.31 1009.82 1010.47 1011.10 1011.66 1012.10 1012.52 1013.06 1013.72 1014.29 1014.67 1014.95 1015.25 1015.58 1015.74 1015.83 1016.03 1016.15 1016.39 1016.47 1016.67 1016.97 1017.31 1017.75 1017.98 1018.08 1018.36 1017.85 1018.67 1019.42 1019.76 1019.96 1020.26 1020.80 1021.41 1022.05 1022.72 1023.40
1004.75 1005.32 1005.88 1006.40 1007.12 1007.86 1008.84 1009.61 1010.08 1010.47 1011.06 1011.68 1012.27 1012.84 1013.41 1013.88 1014.24 1014.51 1014.65 1014.92 1015.16 1015.32 1015.56 1015.92 1016.17 1016.36 1016.43 1016.33 1016.58 1016.97 1017.41 1017.42 1017.79 1018.35 1018.32 1019.49 1019.63 1019.96 1020.44 1020.97 1021.85 1022.16 1022.72
1003.72 1004.17 1004.57 1005.21 1006.21 1007.04 1007.75 1008.47 1009.14 1009.82 1010.31 1010.87 1011.43 1011.92 1012.22 1012.61 1013.10 1013.48 1013.77 1014.00 1014.39 1014.78 1014.99 1015.21 1015.31 1015.52 1015.69 1015.77 1016.07 1016.24 1016.60 1016.71 1017.30 1017.74 1018.44 1018.75 1019.17 1019.79 1020.26 1020.83 1021.50 1021.92 1022.41
1002.94 1003.34 1004.17 1004.75 1005.40 1005.91 1006.54 1007.14 1008.07 1008.60 1008.82 1009.56 1010.16 1010.33 1010.65 1011.23 1011.72 1011.90 1012.23 1012.95 1013.34 1013.65 1013.82 1014.15 1014.43 1014.56 1014.45 1014.94 1015.33 1015.82 1015.92 1016.14 1016.76 1017.36 1017.97 1018.41 1019.04 1019.57 1020.01 1020.58 1021.18 1021.69 1022.09
1002.68 1003.10 1003.64 1003.92 1004.42 1005.01 1005.52 1006.05 1006.74 1007.21 1008.01 1008.59 1009.08 1009.49 1010.21 1010.52 1010.57 1010.92 1011.52 1011.89 1012.24 1012.52 1013.03 1013.37 1013.47 1013.49 1013.44 1014.42 1014.74 1015.28 1015.54 1015.75 1016.54 1016.89 1017.45 1018.11 1018.54 1019.41 1019.75 1020.45 1021.14 1021.80 1022.13
1001.77 1002.53 1003.17 1003.24 1003.60 1004.03 1004.54 1005.11 1005.57 1006.34 1007.11 1007.73 1008.34 1008.77 1008.96 1009.28 1009.64 1009.97 1010.50 1010.92 1011.38 1011.77 1012.16 1012.44 1012.54 1012.90 1013.37 1013.90 1014.47 1015.00 1015.21 1015.64 1016.16 1016.74 1017.32 1017.90 1018.30 1018.92 1019.61 1020.27 1020.98 1021.54 1022.06
1001.44 1001.64 1002.06 1002.32 1002.79 1003.34 1003.71 1004.07 1004.55 1005.49 1006.20 1006.88 1007.45 1007.56 1008.29 1008.69 1009.16 1009.63 1010.00 1010.34 1010.80 1011.24 1011.56 1011.84 1012.14 1012.49 1012.93 1013.36 1014.14 1014.57 1015.08 1015.62 1016.36 1016.94 1017.38 1018.20 1018.74 1019.13 1019.80 1020.44 1021.15 1021.67 1022.16
1000.58 1000.79 1000.87 1001.52 1002.10 1002.48 1002.83 1003.69 1004.28 1005.03 1005.74 1006.46 1007.03 1007.73 1008.20 1008.62 1009.07 1009.60 1010.07 1010.40 1010.75 1011.06 1011.35 1011.70 1012.07 1012.45 1012.74 1013.17 1013.68 1014.29 1014.98 1015.80 1016.32 1017.37 1018.10 1018.81 1019.49 1019.92 1020.37 1020.92 1021.51 1021.87 1022.22
999.67 1000.10 1000.27 1000.48 1001.17 1002.16 1002.83 1003.72 1004.60 1005.20 1005.82 1006.53 1007.22 1007.93 1008.42 1008.90 1009.33 1009.72 1010.02 1010.42 1010.77 1011.16 1011.57 1011.97 1012.30 1012.81 1013.25 1013.68 1014.19 1014.55 1015.24 1015.91 1016.85 1017.94 1018.98 1019.37 1020.38 1020.62 1021.18 1021.86 1022.15 1022.51 1022.68
998.96 999.33 999.97 1001.02 1001.78 1002.41 1003.22 1004.09 1004.84 1005.45 1006.13 1006.87 1007.48 1008.01 1008.41 1008.94 1009.44 1009.88 1010.28 1010.66 1011.15 1011.56 1012.01 1012.39 1012.86 1013.36 1014.12 1014.57 1014.95 1015.22 1016.00 1016.86 1018.06 1018.57 1019.30 1020.16 1020.75 1021.27 1021.55 1022.02 1022.33 1022.63 1022.76
997.82 998.60 999.42 1000.69 1001.86 1002.89 1003.68 1004.51 1005.32 1006.02 1006.58 1007.28 1007.95 1008.36 1008.69 1009.19 1009.60 1010.07 1010.64 1011.24 1011.72 1012.19 1012.70 1013.18 1013.54 1014.15 1015.14 1015.39 1015.74 1016.02 1017.00 1018.06 1018.90 1019.49 1020.01 1020.65 1021.07 1021.57 1021.87 1022.12 1022.31 1022.52 1022.66
998.43 999.31 1000.17 1001.21 1002.40 1003.47 1004.10 1004.94 1005.98 1006.69 1007.44 1008.14 1008.70 1009.13 1009.56 1009.99 1010.42 1010.83 1011.27 1011.75 1012.33 1012.93 1013.53 1014.22 1014.79 1015.32 1016.00 1016.45 1016.71 1017.08 1017.86 1018.79 1019.59 1020.28 1020.75 1021.03 1021.38 1021.69 1021.84 1021.98 1022.14 1022.40 1022.68
999.27 1000.16 1001.09 1001.96 1002.98 1003.83 1004.58 1005.63 1006.45 1007.43 1008.05 1008.64 1009.20 1009.75 1010.14 1010.64 1011.12 1011.67 1012.10 1012.60 1013.24 1013.96 1014.76 1015.42 1016.34 1016.70 1017.19 1017.64 1017.85 1018.17 1018.62 1019.28 1019.93 1020.52 1021.14 1021.48 1021.58 1021.56 1021.63 1021.78 1022.06 1022.33 1022.78
1000.68 1001.10 1001.92 1002.96 1003.90 1004.40 1004.89 1006.18 1007.50 1008.46 1008.76 1009.39 1010.08 1010.60 1010.97 1011.42 1012.06 1012.51 1013.17 1013.71 1014.34 1015.12 1015.99 1016.62 1017.46 1018.10 1018.45 1018.63 1018.88 1019.14 1019.58 1020.06 1020.42 1020.91 1021.32 1021.44 1021.51 1021.54 1021.66 1021.92 1022.18 1022.51 1022.91
1001.27 1002.25 1002.98 1004.09 1004.85 1005.16 1005.67 1007.02 1008.27 1008.78 1009.45 1010.13 1010.91 1011.53 1011.93 1012.42 1012.92 1013.36 1014.01 1014.66 1015.26 1015.92 1016.80 1017.42 1018.08 1018.92 1019.45 1019.82 1020.09 1020.29 1020.58 1020.80 1021.05 1021.38 1021.44 1021.59 1021.72 1021.78 1021.92 1022.07 1022.28 1022.67 1022.87
1003.20 1003.80 1003.86 1004.64 1005.75 1006.52 1007.22 1007.85 1008.75 1009.23 1009.93 1010.93 1012.08 1012.69 1013.19 1013.83 1014.33 1014.74 1015.25 1015.85 1016.48 1016.84 1017.40 1018.13 1018.98 1019.72 1020.14 1020.50 1020.78 1021.01 1021.20 1021.37 1021.51 1021.67 1021.81 1021.94 1021.98 1022.03 1022.21 1022.34 1022.49 1022.70 1022.88
1004.59 1005.40 1005.48 1006.16 1007.67 1007.64 1009.00 1009.36 1009.99 1010.52 1011.31 1012.20 1013.24 1013.95 1014.49 1015.23 1015.95 1016.50 1017.03 1017.40 1017.92 1018.18 1018.57 1019.15 1019.65 1020.11 1020.48 1020.90 1021.21 1021.38 1021.61 1021.76 1021.92 1022.04 1022.16 1022.21 1022.30 1022.41 1022.48 1022.55 1022.66 1022.81 1022.88
1006.64 1006.27 1008.02 1008.72 1009.52 1009.60 1010.62 1011.31 1011.98 1012.06 1012.54 1013.52 1014.47 1015.31 1015.75 1016.36 1016.96 1017.54 1018.19 1018.77 1019.05 1019.35 1019.68 1020.08 1020.37 1020.74 1020.99 1021.45 1021.63 1021.84 1022.08 1022.20 1022.27 1022.31 1022.48 1022.63 1022.77 1022.81 1022.81 1022.82 1022.88 1023.00 1023.04
Wind_Speed
7 6 7 8 8 7 8 9 10 8 8 7 6 6 7 4 5 4 6 6 7 8 7 4 5 5 5 5 5 3 4 2 3 4 2 2 4 6 5 4 4 5 5
9 8 8 6 8 8 6 9 10 10 7 6 3 2 6 3 4 4 4 5 6 7 7 7 7 6 5 5 6 4 3 2 4 4 2 1 3 3 5 4 4 5 3
13 12 10 8 8 9 8 8 9 11 9 8 5 3 4 4 3 3 4 3 5 7 8 8 8 7 6 6 6 6 7 5 3 2 5 2 5 1 1 4 4 4 4
8 8 12 12 8 8 8 8 9 10 10 11 9 7 9 9 6 4 5 7 8 8 8 8 7 6 6 6 8 7 5 5 5 1 3 1 2 4 2 2 3 4 5
12 12 12 10 12 11 10 9 8 9 9 12 10 6 8 7 3 4 7 6 6 8 8 7 6 6 6 7 7 6 7 5 4 4 3 2 0 1 2 3 2 2 2
13 11 9 9 9 9 11 11 10 10 11 12 10 10 8 7 6 5 5 5 4 4 6 7 8 9 8 8 8 8 9 9 7 5 5 5 5 4 3 2 3 3 3
15 14 14 14 11 14 15 13 15 14 13 12 12 10 8 7 10 10 7 5 4 4 7 8 8 7 8 9 9 9 10 9 9 9 8 6 5 4 3 4 3 5 4
14 16 17 17 16 18 18 17 16 14 14 13 12 9 10 7 8 8 8 5 7 5 5 7 9 10 9 9 9 9 9 8 8 11 9 7 7 5 4 5 5 2 3
16 18 16 16 17 18 18 17 15 14 13 13 12 12 11 11 11 10 6 5 5 5 6 7 6 6 7 9 10 8 8 7 10 11 10 7 5 6 5 4 4 6 3
10 12 14 16 15 14 14 15 16 17 14 15 13 12 12 13 12 8 10 10 7 6 6 6 7 6 8 10 9 7 6 7 4 4 7 7 4 5 5 5 4 2 3
11 13 15 14 13 12 14 15 17 16 15 14 12 13 13 13 12 12 12 11 9 11 13 12 10 9 10 9 10 10 11 12 10 8 9 8 7 5 5 4 3 3 3
8 8 7 9 12 14 15 16 15 16 16 14 15 18 17 15 16 17 17 14 14 12 13 12 12 11 13 10 10 10 8 10 10 10 9 8 6 6 6 5 5 4 4
6 6 8 11 12 13 13 15 15 17 16 16 17 16 13 14 17 15 13 13 13 13 12 13 15 15 13 10 9 9 9 8 8 8 8 8 9 7 5 4 4 3 2
8 6 6 9 10 12 13 13 15 14 14 15 16 14 13 14 12 11 9 10 11 12 13 14 15 10 9 8 7 7 7 7 7 7 8 8 8 7 5 4 5 3 3
8 10 11 10 10 9 10 12 13 12 14 15 15 16 9 7 7 6 6 7 9 9 11 8 6 7 8 7 9 8 9 9 8 7 7 6 9 10 5 3 3 4 3
11 11 12 9 10 12 11 5 5 6 9 10 9 5 6 5 5 5 5 5 4 4 5 5 6 6 4 9 11 10 8 8 9 9 10 10 12 13 15 13 9 4 3
11 13 15 14 8 7 7 7 8 7 7 7 6 6 6 6 5 5 5 5 5 5 5 5 5 6 5 10 10 12 8 9 10 9 7 8 7 8 7 9 8 7 6
9 10 7 6 7 7 10 10 9 8 9 8 7 7 7 6 5 5 5 5 4 5 5 6 7 8 7 14 15 17 11 11 9 9 8 8 7 6 5 4 3 3 2
11 6 7 7 10 9 10 10 9 8 8 7 6 5 5 6 6 6 6 5 7 7 7 7 9 10 9 16 15 14 11 10 10 7 8 7 7 8 5 3 2 2 3
5 9 10 12 11 10 11 11 10 9 8 7 7 7 6 6 7 7 7 7 8 9 8 11 11 13 10 13 15 11 7 9 7 7 8 11 7 5 3 3 2 1 2
12 14 12 12 11 11 11 12 10 10 9 9 9 8 8 8 8 8 7 8 10 11 11 12 11 12 11 12 16 13 7 6 5 5 4 3 4 3 2 4 3 3 3
12 14 13 13 10 11 13 13 12 10 11 11 11 11 10 8 7 10 8 9 10 11 10 10 9 8 9 15 17 17 14 8 5 4 3 3 4 3 2 4 4 6 3
14 12 14 14 10 10 12 15 11 12 12 12 11 10 11 10 9 9 8 8 8 8 7 6 7 6 6 7 14 14 12 10 5 3 4 4 3 2 2 4 5 4 1
12 11 15 15 14 12 12 12 10 10 12 13 11 10 11 11 11 9 8 7 6 5 6 6 6 5 4 4 4 4 4 7 4 4 3 2 2 2 3 2 2 1 1
13 12 14 16 14 14 12 11 10 12 14 13 11 12 11 12 13 13 9 9 10 8 6 5 4 3 3 3 5 4 3 2 2 1 1 0 0 1 1 1 1 2 3
10 18 16 16 14 17 15 14 11 12 14 14 11 9 9 9 8 8 9 18 15 18 17 14 6 5 8 8 6 7 6 5 3 0 0 0 0 1 2 2 2 3 4
Wind_Direction
194 182 156 142 133 134 138 137 133 128 131 136 132 153 161 122 118 113 137 145 163 160 155 139 149 164 155 175 181 141 166 153 153 99 59 249 225 231 220 220 214 206 205
178 192 166 156 153 145 149 147 154 153 151 144 104 113 154 99 123 112 139 138 168 163 172 163 182 178 147 172 189 161 160 155 174 139 98 278 309 251 219 212 220 225 210
178 188 185 175 160 148 155 159 162 171 165 145 113 92 84 91 118 110 81 209 191 180 171 183 182 176 170 188 188 184 182 179 191 195 142 130 228 263 17 218 213 198 208
167 175 189 190 167 161 165 172 167 172 175 169 164 187 186 174 166 151 181 192 194 195 189 192 181 159 184 191 196 195 179 146 177 229 201 14 161 179 279 310 274 188 200
183 181 187 192 184 177 176 174 175 178 176 189 182 177 202 184 136 149 180 195 203 194 198 179 168 192 195 208 194 180 192 194 164 166 142 163 207 97 163 246 254 342 252
183 189 184 180 182 187 191 180 182 185 188 189 186 185 189 183 191 200 200 198 199 203 201 192 199 209 206 205 203 206 204 208 203 187 175 178 173 189 174 176 205 187 220
178 178 182 188 181 195 197 191 192 195 192 189 199 192 195 208 215 220 223 227 213 202 204 194 202 208 207 211 208 201 210 203 208 202 206 204 197 158 155 171 180 210 214
181 187 184 185 189 193 196 196 192 197 195 193 202 198 204 212 224 224 230 229 233 226 184 191 204 209 207 205 194 209 215 207 216 221 210 208 198 173 156 168 182 230 240
184 191 185 186 184 189 191 191 190 196 194 194 197 203 206 209 216 222 213 219 221 224 213 207 220 221 209 201 201 207 209 194 210 214 212 207 200 173 175 157 163 202 197
180 184 190 192 191 189 184 186 192 194 192 193 197 202 203 209 213 207 215 220 221 212 208 211 212 212 217 204 190 193 186 196 209 235 202 204 174 162 153 161 166 167 178
188 192 198 193 186 180 185 190 193 195 194 195 196 203 207 208 212 222 228 224 221 216 215 213 206 210 230 198 200 206 194 198 195 181 194 191 160 171 167 150 159 176 174
207 204 186 171 182 189 191 194 194 198 199 194 198 209 209 206 212 215 218 219 222 217 219 213 212 215 234 208 199 201 195 192 186 182 179 172 158 175 161 163 180 186 186
226 203 183 188 190 195 198 199 196 203 199 201 206 216 217 212 219 221 222 217 213 219 217 212 214 218 221 195 193 194 182 175 192 186 174 170 159 171 152 158 172 189 189
211 196 194 203 198 196 199 199 206 200 199 204 212 221 212 210 213 215 211 203 209 215 215 220 225 220 192 193 181 179 165 163 164 167 158 162 166 168 160 154 168 175 173
213 201 216 208 198 195 196 201 203 191 192 202 208 219 215 205 205 198 200 206 206 212 220 206 178 174 180 179 179 167 161 161 148 129 97 79 88 90 108 125 128 131 129
214 226 213 211 200 206 202 191 158 149 173 192 208 143 139 148 156 144 147 150 157 152 149 157 152 158 174 167 155 152 145 141 117 109 102 100 94 88 85 92 99 95 137
208 211 213 204 204 155 138 133 123 108 102 111 117 129 136 130 134 139 144 160 157 128 129 123 133 122 108 119 115 112 114 107 109 110 107 98 97 87 91 77 72 65 67
225 211 185 128 122 114 112 113 113 113 116 121 127 135 141 145 140 138 136 118 122 126 117 114 111 101 87 98 98 91 92 92 79 88 91 97 93 89 101 100 97 97 94
225 185 136 131 123 118 122 110 103 107 109 114 123 123 125 129 127 119 111 103 108 98 86 83 88 96 96 102 100 98 92 87 89 86 89 105 101 88 87 114 113 96 90
136 121 110 110 114 111 112 107 104 103 96 95 94 88 87 94 98 102 102 96 93 89 82 71 68 80 84 80 85 88 99 102 102 94 90 92 103 103 128 134 126 88 42
106 113 107 108 113 112 107 101 97 88 93 88 84 79 77 82 88 86 84 90 89 86 78 77 64 69 71 76 82 85 83 101 103 111 117 111 86 65 83 119 112 88 71
95 101 102 101 106 113 108 96 90 94 91 89 84 78 74 77 80 84 80 83 91 87 85 88 79 68 71 75 76 78 79 83 99 104 104 70 16 18 68 121 91 93 71
116 108 111 111 100 91 102 106 112 106 98 91 86 83 81 76 76 86 87 88 91 102 104 103 103 90 69 65 70 72 70 64 78 82 60 28 11 20 112 101 101 96 56
86 104 104 87 81 82 89 100 113 112 104 95 85 78 74 70 62 62 56 63 58 80 85 87 89 90 88 84 83 71 55 52 58 50 41 19 2 69 106 101 115 63 351
78 68 75 83 80 79 71 74 83 93 87 85 82 78 78 75 73 62 57 61 52 58 72 73 90 93 84 78 88 79 67 62 72 70 33 56 86 188 232 227 292 336 328
76 85 73 70 69 71 65 55 64 84 92 85 77 78 81 79 78 81 80 70 75 70 68 62 60 47 91 112 88 59 43 30 3 34 16 282 257 279 301 296 312 322 314